Terug naar catalogus

STARLINK-30468

ActiefCommunicatieVLEO
NORAD 57926·PAYLOAD·🇺🇸 United States

Gelanceerd Sep 24, 2023 vanaf Cape Canaveral Space Force Station

Loading…

Volgende Passages (komende 24 uur)

TLE

VersSource: CelesTrak SupGP

Epoch: Sep 15, 2026, 01:31 UTC

1 57926C 23147P   26258.06368056  .00030397  00000+0  11009-2 0  2585
2 57926  43.0031 338.9975 0001419 265.7437  31.4810 15.27565714    16

Volg STARLINK-30468 in realtime met AllMySat

Download on the App Store